Погода в Карабуруне

Турция     38°38′11″N   26°30′34″E
темп.,
°C
ветер,
м/с
пор.,
м/с
влажн.,
%
обл.,
%
осадки,
мм/ч
давл.,
гПа
погр.,
м
12 мая, ср
ср1200:00+16всв44550 0.0 1012218
03:00+15св44565 0.0 1011257
06:00+15св34583 0.0 1010260
09:00+15всв33553 0.0 1011218
12:00+18всв22460 0.0 1010191
15:00+18зсз434899 0.0 1009315
18:00+20з455089 0.0 1008159
21:00+18ююз2361100 0.0 100844
13 мая, чт
чт1300:00+18юв22580 0.0 100836
03:00+18ю11610 0.0 100825
06:00+17ююв22650 0.0 100853
09:00+19юв44645 0.0 1009261
12:00+21ююз36664 0.0 1008344
15:00+21ююз57630 0.0 1009244
18:00+21ю46620 0.0 1009163
21:00+18ю47770 0.0 1010152
14 мая, пт
пт1400:00+17ю35830 0.0 1010159
03:00+17ю35850 0.0 1010242
06:00+17ююв34840 0.0 1011249
09:00+19ю34740 0.0 1012292
12:00+21ююз45670 0.0 1013261
15:00+22юз46590 0.0 1013266
18:00+21юз45625 0.0 1013192
21:00+19юз33715 0.0 101344
15 мая, сб
сб1500:00+18юв22725 0.0 101421
03:00+18юв22717 0.0 101330
06:00+17юв34720 0.0 1012119
09:00+19вюв44646 0.0 1012225
12:00+21зюз22596 0.0 1012312
15:00+23юз455351 0.0 1010264
18:00+22юз4554100 0.0 1009117
21:00+20ююв2363100 0.0 100844
16 мая, вс
вс1600:00+19ю1269100 0.0 100760
03:00+18ююз347310 0.1 100582
06:00+17ю34821 0.1 1005147
09:00+19зюз33740 0.4 1005266
12:00+19з776866 0.1 1005456
15:00+19з78681 0.1 1005470
18:00+19з68630 0.0 1005383
21:00+18зюз45680 0.0 1006135